When you browse on this site, cookies collect data to enhance your experience and personalize the content and advertising you see.
Visit our Privacy Policy to learn more. By continuing to use the site, you agree to this use of cookies and data.
  • In Latvia
  • List of Countries
  • For 7 days
  • Water Temperature
  • Weather Map
  • Weather Widgets
  • user-avatar
    Login

    Hourly Weather Harrisburg

    Today, 16 October, Wednesday

    Time Temperature Precipitation Wind Pressure Humidity
    00:00 +10°C° 0 mm 2 mps 752 mmHg 84%
    01:00 +9°C° 0 mm 2 mps 751 mmHg 91%
    02:00 +10°C° 0 mm 2 mps 751 mmHg 93%
    03:00 +10°C° 0 mm 2 mps 750 mmHg 95%
    04:00 +10°C° 0 mm 2 mps 749 mmHg 97%
    05:00 +12°C° 0 mm 3 mps 749 mmHg 95%
    06:00 +13°C° 0 mm 4 mps 749 mmHg 93%
    07:00 +15°C° 0 mm 5 mps 748 mmHg 90%
    08:00 +15°C° 0.2 mm 6 mps 747 mmHg 87%
    09:00 +16°C° 0.2 mm 6 mps 746 mmHg 84%
    10:00 +17°C° 0.2 mm 6 mps 745 mmHg 81%
    11:00 +16°C° 2.8 mm 6 mps 744 mmHg 85%
    12:00 +15°C° 2.8 mm 5 mps 743 mmHg 90%
    13:00 +13°C° 2.8 mm 5 mps 743 mmHg 94%
    14:00 +13°C° 6.5 mm 4 mps 742 mmHg 94%
    15:00 +12°C° 6.5 mm 4 mps 741 mmHg 94%
    16:00 +11°C° 6.5 mm 4 mps 741 mmHg 94%
    17:00 +10°C° 0.6 mm 4 mps 741 mmHg 90%
    18:00 +8°C° 0.6 mm 5 mps 741 mmHg 87%
    19:00 +8°C° 0.6 mm 5 mps 741 mmHg 84%
    20:00 +7°C° 0 mm 5 mps 740 mmHg 85%
    21:00 +7°C° 0 mm 5 mps 740 mmHg 87%
    22:00 +6°C° 0 mm 4 mps 740 mmHg 88%
    23:00 +7°C° 0 mm 5 mps 740 mmHg 87%

    Tomorrow, 17 October, Thursday

    Time Temperature Precipitation Wind Pressure Humidity
    00:00 +7°C° 0 mm 5 mps 739 mmHg 86%
    01:00 +7°C° 0 mm 6 mps 739 mmHg 84%
    02:00 +7°C° 0 mm 6 mps 739 mmHg 81%
    03:00 +8°C° 0 mm 6 mps 739 mmHg 79%
    04:00 +8°C° 0 mm 6 mps 739 mmHg 76%
    05:00 +8°C° 0 mm 6 mps 739 mmHg 76%
    06:00 +8°C° 0 mm 6 mps 740 mmHg 75%
    07:00 +7°C° 0 mm 6 mps 740 mmHg 74%
    08:00 +8°C° 0 mm 7 mps 740 mmHg 71%
    09:00 +9°C° 0 mm 8 mps 740 mmHg 68%
    10:00 +10°C° 0 mm 8 mps 740 mmHg 65%
    11:00 +10°C° 0 mm 8 mps 741 mmHg 65%
    12:00 +10°C° 0 mm 8 mps 741 mmHg 65%
    13:00 +10°C° 0 mm 8 mps 741 mmHg 65%
    14:00 +10°C° 0 mm 8 mps 741 mmHg 65%
    15:00 +10°C° 0 mm 8 mps 742 mmHg 65%
    16:00 +11°C° 0 mm 8 mps 742 mmHg 65%
    17:00 +10°C° 0 mm 8 mps 743 mmHg 66%
    18:00 +10°C° 0 mm 7 mps 744 mmHg 66%
    19:00 +9°C° 0 mm 7 mps 744 mmHg 67%
    20:00 +9°C° 0 mm 7 mps 745 mmHg 68%
    21:00 +9°C° 0 mm 7 mps 745 mmHg 69%
    22:00 +9°C° 0 mm 7 mps 746 mmHg 70%
    23:00 +9°C° 0 mm 6 mps 746 mmHg 71%

    Day after tomorrow, 18 October, Friday

    Time Temperature Precipitation Wind Pressure Humidity
    00:00 +9°C° 0 mm 6 mps 746 mmHg 72%
    01:00 +9°C° 0 mm 5 mps 747 mmHg 73%
    02:00 +9°C° 0 mm 5 mps 747 mmHg 73%
    03:00 +9°C° 0 mm 5 mps 748 mmHg 73%
    04:00 +9°C° 0 mm 5 mps 748 mmHg 73%
    05:00 +9°C° 0 mm 5 mps 749 mmHg 75%
    06:00 +8°C° 0 mm 5 mps 749 mmHg 77%
    07:00 +8°C° 0 mm 5 mps 750 mmHg 79%
    08:00 +9°C° 0 mm 5 mps 750 mmHg 73%
    09:00 +12°C° 0 mm 5 mps 750 mmHg 67%
    10:00 +13°C° 0 mm 6 mps 751 mmHg 62%
    11:00 +13°C° 0 mm 5 mps 751 mmHg 61%
    12:00 +13°C° 0 mm 5 mps 751 mmHg 60%
    13:00 +13°C° 0 mm 5 mps 751 mmHg 59%
    14:00 +13°C° 0 mm 5 mps 751 mmHg 59%
    15:00 +13°C° 0 mm 4 mps 751 mmHg 59%
    16:00 +13°C° 0 mm 4 mps 751 mmHg 59%
    17:00 +12°C° 0 mm 3 mps 752 mmHg 65%
    18:00 +10°C° 0 mm 2 mps 752 mmHg 71%
    19:00 +9°C° 0 mm 1 mps 753 mmHg 77%
    20:00 +8°C° 0 mm 1 mps 753 mmHg 79%
    21:00 +8°C° 0 mm 1 mps 753 mmHg 82%
    22:00 +7°C° 0 mm 1 mps 754 mmHg 84%
    23:00 +7°C° 0 mm 1 mps 754 mmHg 85%

    19 October, Saturday

    Time Temperature Precipitation Wind Pressure Humidity
    00:00 +7°C° 0 mm 1 mps 754 mmHg 86%
    01:00 +6°C° 0 mm 1 mps 754 mmHg 87%
    02:00 +5°C° 0 mm 0 mps 754 mmHg 87%
    03:00 +5°C° 0 mm 0 mps 754 mmHg 88%
    04:00 +5°C° 0 mm 0 mps 754 mmHg 88%
    05:00 +5°C° 0 mm 0 mps 754 mmHg 88%
    06:00 +5°C° 0 mm 0 mps 754 mmHg 88%
    07:00 +5°C° 0 mm 0 mps 754 mmHg 88%
    08:00 +7°C° 0 mm 0 mps 754 mmHg 79%
    09:00 +11°C° 0 mm 1 mps 754 mmHg 71%
    10:00 +13°C° 0 mm 1 mps 754 mmHg 62%
    11:00 +15°C° 0 mm 2 mps 753 mmHg 59%
    12:00 +16°C° 0 mm 2 mps 753 mmHg 56%
    13:00 +17°C° 0 mm 3 mps 753 mmHg 53%
    14:00 +17°C° 0 mm 2 mps 752 mmHg 56%
    15:00 +17°C° 0 mm 2 mps 752 mmHg 59%
    16:00 +17°C° 0 mm 2 mps 751 mmHg 63%
    17:00 +15°C° 0 mm 2 mps 752 mmHg 70%
    18:00 +13°C° 0 mm 1 mps 752 mmHg 77%
    19:00 +11°C° 0 mm 1 mps 752 mmHg 84%
    20:00 +10°C° 0 mm 1 mps 753 mmHg 85%
    21:00 +10°C° 0 mm 1 mps 753 mmHg 87%
    22:00 +9°C° 0 mm 1 mps 753 mmHg 88%
    23:00 +9°C° 0 mm 1 mps 753 mmHg 88%

    20 October, Sunday

    Time Temperature Precipitation Wind Pressure Humidity
    00:00 +9°C° 0 mm 1 mps 753 mmHg 89%
    01:00 +9°C° 0 mm 1 mps 753 mmHg 89%
    02:00 +7°C° 0 mm 0 mps 753 mmHg 89%
    03:00 +7°C° 0 mm 0 mps 753 mmHg 90%
    04:00 +7°C° 0 mm 0 mps 753 mmHg 90%
    05:00 +7°C° 0 mm 0 mps 753 mmHg 90%
    06:00 +7°C° 0 mm 0 mps 754 mmHg 90%
    07:00 +7°C° 0 mm 0 mps 754 mmHg 90%
    08:00 +10°C° 0 mm 0 mps 754 mmHg 82%
    09:00 +12°C° 0 mm 0 mps 754 mmHg 74%
    10:00 +15°C° 0 mm 0 mps 754 mmHg 66%
    11:00 +16°C° 0 mm 0 mps 754 mmHg 63%
    12:00 +20°C° 0 mm 1 mps 754 mmHg 60%
    13:00 +21°C° 0 mm 1 mps 754 mmHg 56%
    14:00 +21°C° 0 mm 1 mps 754 mmHg 59%
    15:00 +21°C° 0 mm 1 mps 754 mmHg 62%
    16:00 +21°C° 0 mm 1 mps 754 mmHg 65%
    17:00 +19°C° 0 mm 1 mps 754 mmHg 72%
    18:00 +16°C° 0 mm 1 mps 755 mmHg 79%
    19:00 +14°C° 0 mm 1 mps 755 mmHg 86%
    20:00 +13°C° 0 mm 1 mps 755 mmHg 87%
    21:00 +13°C° 0 mm 1 mps 756 mmHg 88%
    22:00 +12°C° 0 mm 1 mps 756 mmHg 89%
    23:00 +12°C° 0 mm 1 mps 756 mmHg 90%

    21 October, Monday

    Time Temperature Precipitation Wind Pressure Humidity
    00:00 +12°C° 0 mm 1 mps 756 mmHg 91%
    01:00 +11°C° 0 mm 1 mps 756 mmHg 92%
    02:00 +11°C° 0 mm 1 mps 756 mmHg 93%
    03:00 +11°C° 0 mm 1 mps 756 mmHg 94%
    04:00 +12°C° 0 mm 1 mps 756 mmHg 95%
    05:00 +12°C° 0 mm 1 mps 756 mmHg 95%
    06:00 +12°C° 0 mm 2 mps 756 mmHg 94%
    07:00 +13°C° 0 mm 2 mps 756 mmHg 94%
    08:00 +14°C° 0 mm 2 mps 756 mmHg 91%
    09:00 +14°C° 0 mm 3 mps 756 mmHg 88%
    10:00 +16°C° 0 mm 3 mps 756 mmHg 86%
    11:00 +17°C° 0.2 mm 3 mps 755 mmHg 87%
    12:00 +17°C° 0.2 mm 4 mps 755 mmHg 89%
    13:00 +17°C° 0.2 mm 4 mps 754 mmHg 90%
    14:00 +17°C° 0.2 mm 4 mps 753 mmHg 90%
    15:00 +17°C° 0.2 mm 5 mps 752 mmHg 91%
    16:00 +17°C° 0.2 mm 6 mps 752 mmHg 91%
    17:00 +17°C° 0.8 mm 6 mps 751 mmHg 93%
    18:00 +17°C° 0.8 mm 6 mps 751 mmHg 94%
    19:00 +19°C° 0.8 mm 6 mps 750 mmHg 95%
    20:00 +19°C° 0.7 mm 6 mps 750 mmHg 96%
    21:00 +20°C° 0.7 mm 5 mps 749 mmHg 97%
    22:00 +21°C° 0.7 mm 4 mps 748 mmHg 97%
    23:00 +21°C° 0.8 mm 4 mps 748 mmHg 97%
    Show more